Weather History for Hays, KS

Change the Weather History Date:

Friday, January 3, 2014

  Actual Average Record
Temperature  
Mean Temperature 30 °F -  
Max Temperature 46 °F 41 °F 77 °F (2006)
Min Temperature 14 °F 16 °F 0 °F (1999)
Degree Days  
Heating Degree Days 35    
Moisture  
Dew Point 23 °F    
Average Humidity 72    
Maximum Humidity 93    
Minimum Humidity 50    
Precipitation  
Precipitation 0.00 in - - ()
Sea Level Pressure  
Sea Level Pressure 29.85 in    
Wind  
Wind Speed 12 mph (South)    
Max Wind Speed 26 mph    
Max Gust Speed 32 mph    
Visibility 10 miles    
Events      
Averages and records for this station are not official NWS values.
T = Trace of Precipitation, MM = Missing Value Source: NWS Daily Summary

Daily Weather History Graph

Daily Weather History Graph

Search for Another Location

Airport:

Trip Planner

Search our weather history database for the weather conditions in past years. The results will help you decide how hot, cold, wet, or windy it might be!

Date:

Astronomy

Jan. 03, 2014 Rise Set
Actual Time 7:55 AM CST 5:27 PM CST
Civil Twilight 7:26 AM CST 5:57 PM CST
Nautical Twilight 6:52 AM CST 6:30 PM CST
Astronomical Twilight 6:20 AM CST 7:03 PM CST
Moon 9:24 AM CST (1/3) 8:36 PM CST (1/3)
Length of Visible Light 10h 31m
Length of Day
9h 31m
Waxing Crescent, 8% of the Moon is Illuminated
Jan 3
Waxing Crescent
Jan 7
First Quarter
Jan 15
Full
Jan 23
Last Quarter
Jan 30
New

Hourly Weather History & Observations

Time (CST) Temp. Windchill Dew Point Humidity Pressure Visibility Wind Dir Wind Speed Gust Speed Precip Events Conditions
12:15 AM 14.0 °F 3.9 °F 10.4 °F 86% 30.22 in 10.0 mi East 6.9 mph - N/A   Clear
12:35 AM 15.8 °F 5.1 °F 10.4 °F 79% 30.21 in 10.0 mi East 8.1 mph - N/A   Clear
12:55 AM 15.8 °F 7.2 °F 12.2 °F 86% 30.20 in 10.0 mi East 5.8 mph - N/A   Clear
1:15 AM 15.8 °F 6.1 °F 12.2 °F 86% 30.19 in 10.0 mi East 6.9 mph - N/A   Clear
1:35 AM 15.8 °F 6.1 °F 12.2 °F 86% 30.19 in 10.0 mi ESE 6.9 mph - N/A   Clear
1:55 AM 15.8 °F 6.1 °F 12.2 °F 86% 30.17 in 10.0 mi ESE 6.9 mph - N/A   Clear
2:15 AM 17.6 °F 8.2 °F 14.0 °F 86% 30.16 in 10.0 mi ESE 6.9 mph - N/A   Clear
2:35 AM 17.6 °F 8.2 °F 15.8 °F 93% 30.15 in 10.0 mi ESE 6.9 mph - N/A   Clear
2:55 AM 21.2 °F 9.5 °F 19.4 °F 93% 30.14 in 10.0 mi SSE 11.5 mph - N/A   Clear
3:15 AM 23.0 °F 10.6 °F 19.4 °F 86% 30.13 in 10.0 mi South 13.8 mph - N/A   Clear
3:35 AM 23.0 °F 11.1 °F 19.4 °F 86% 30.13 in 10.0 mi South 12.7 mph - N/A   Clear
3:55 AM 23.0 °F 12.4 °F 17.6 °F 80% 30.11 in 10.0 mi SSE 10.4 mph - N/A   Clear
4:15 AM 21.2 °F 10.9 °F 17.6 °F 86% 30.10 in 10.0 mi SSE 9.2 mph - N/A   Clear
4:35 AM 21.2 °F 10.9 °F 17.6 °F 86% 30.09 in 10.0 mi SSE 9.2 mph - N/A   Clear
4:55 AM 21.2 °F 10.1 °F 17.6 °F 86% 30.07 in 10.0 mi SSE 10.4 mph - N/A   Clear
5:15 AM 21.2 °F 8.9 °F 17.6 °F 86% 30.06 in 10.0 mi SSE 12.7 mph - N/A   Clear
5:35 AM 21.2 °F 8.9 °F 17.6 °F 86% 30.05 in 10.0 mi SSE 12.7 mph - N/A   Clear
5:55 AM 21.2 °F 9.5 °F 17.6 °F 86% 30.03 in 10.0 mi South 11.5 mph - N/A   Clear
6:15 AM 21.2 °F 10.1 °F 17.6 °F 86% 30.02 in 10.0 mi South 10.4 mph 17.3 mph N/A   Clear
6:35 AM 21.2 °F 10.1 °F 17.6 °F 86% 30.01 in 10.0 mi South 10.4 mph - N/A   Clear
6:55 AM 21.2 °F 9.5 °F 17.6 °F 86% 30.00 in 10.0 mi South 11.5 mph - N/A   Clear
7:15 AM 21.2 °F 11.7 °F 17.6 °F 86% 30.00 in 10.0 mi South 8.1 mph - N/A   Clear
7:35 AM 21.2 °F 11.7 °F 17.6 °F 86% 29.99 in 10.0 mi South 8.1 mph - N/A   Clear
7:55 AM 21.2 °F 11.7 °F 17.6 °F 86% 29.99 in 10.0 mi South 8.1 mph - N/A   Clear
8:15 AM 21.2 °F 9.5 °F 17.6 °F 86% 29.97 in 10.0 mi South 11.5 mph - N/A   Clear
8:35 AM 23.0 °F 10.1 °F 19.4 °F 86% 29.94 in 10.0 mi South 15.0 mph - N/A   Clear
8:55 AM 24.8 °F 12.9 °F 19.4 °F 80% 29.94 in 10.0 mi South 13.8 mph - N/A   Clear
9:15 AM 26.6 °F 15.2 °F 21.2 °F 80% 29.94 in 10.0 mi South 13.8 mph 20.7 mph N/A   Clear
9:35 AM 28.4 °F 16.6 °F 21.2 °F 74% 29.94 in 10.0 mi SSW 16.1 mph - N/A   Clear
9:55 AM 30.2 °F 17.1 °F 21.2 °F 69% 29.94 in 10.0 mi SSW 21.9 mph - N/A   Clear
10:15 AM 30.2 °F 17.8 °F 23.0 °F 75% 29.93 in 10.0 mi SSW 19.6 mph - N/A   Clear
10:35 AM 32.0 °F 19.8 °F 24.8 °F 75% 29.91 in 10.0 mi South 20.7 mph - N/A   Clear
10:55 AM 33.8 °F 21.9 °F 26.6 °F 75% 29.90 in 10.0 mi SSW 21.9 mph 28.8 mph N/A   Clear
11:15 AM 35.6 °F 23.4 °F 26.6 °F 70% 29.88 in 10.0 mi SSW 25.3 mph 32.2 mph N/A   Clear
11:35 AM 37.4 °F 25.6 °F 26.6 °F 65% 29.86 in 10.0 mi SSW 26.5 mph 31.1 mph N/A   Clear
11:55 AM 37.4 °F 26.6 °F 26.6 °F 65% 29.84 in 10.0 mi SSW 21.9 mph 27.6 mph N/A   Clear
12:15 PM 39.2 °F 30.2 °F 28.4 °F 65% 29.83 in 10.0 mi SSW 17.3 mph 26.5 mph N/A   Clear
12:35 PM 41.0 °F 31.4 °F 28.4 °F 61% 29.80 in 10.0 mi SSW 21.9 mph 27.6 mph N/A   Clear
12:55 PM 42.8 °F 33.8 °F 28.4 °F 57% 29.79 in 10.0 mi SSW 21.9 mph 31.1 mph N/A   Clear
1:15 PM 42.8 °F 33.5 °F 28.4 °F 57% 29.77 in 10.0 mi SSW 23.0 mph 27.6 mph N/A   Clear
1:35 PM 44.6 °F 36.6 °F 28.4 °F 53% 29.75 in 10.0 mi SSW 19.6 mph 28.8 mph N/A   Clear
1:55 PM 44.6 °F 36.4 °F 30.2 °F 57% 29.74 in 10.0 mi SSW 20.7 mph 31.1 mph N/A   Clear
2:15 PM 44.6 °F 36.1 °F 30.2 °F 57% 29.72 in 10.0 mi South 21.9 mph - N/A   Clear
2:35 PM 46.4 °F 38.1 °F 30.2 °F 53% 29.70 in 10.0 mi South 24.2 mph 28.8 mph N/A   Clear
2:55 PM 46.4 °F 38.1 °F 30.2 °F 53% 29.70 in 10.0 mi South 24.2 mph 28.8 mph N/A   Clear
3:15 PM 46.4 °F 38.7 °F 30.2 °F 53% 29.69 in 10.0 mi South 20.7 mph 28.8 mph N/A   Clear
3:35 PM 46.4 °F 38.1 °F 30.2 °F 53% 29.68 in 10.0 mi South 24.2 mph 28.8 mph N/A   Clear
3:55 PM 46.4 °F 39.0 °F 30.2 °F 53% 29.68 in 10.0 mi South 19.6 mph 26.5 mph N/A   Clear
4:15 PM 46.4 °F 38.7 °F 30.2 °F 53% 29.67 in 10.0 mi South 20.7 mph - N/A   Clear
4:35 PM 46.4 °F 38.7 °F 28.4 °F 50% 29.66 in 10.0 mi South 20.7 mph 25.3 mph N/A   Clear
4:55 PM 46.4 °F 40.1 °F 28.4 °F 50% 29.66 in 10.0 mi South 15.0 mph - N/A   Clear
5:15 PM 44.6 °F 38.8 °F 28.4 °F 53% 29.66 in 10.0 mi South 11.5 mph - N/A   Clear
5:35 PM 42.8 °F 37.0 °F 28.4 °F 57% 29.66 in 10.0 mi South 10.4 mph - N/A   Clear
5:55 PM 39.2 °F 33.0 °F 26.6 °F 61% 29.65 in 10.0 mi SSE 9.2 mph - N/A   Clear
6:15 PM 37.4 °F 31.4 °F 26.6 °F 65% 29.65 in 10.0 mi SSE 8.1 mph - N/A   Clear
6:35 PM 35.6 °F 28.6 °F 26.6 °F 70% 29.64 in 10.0 mi South 9.2 mph - N/A   Clear
6:55 PM 37.4 °F 30.8 °F 28.4 °F 70% 29.64 in 10.0 mi South 9.2 mph - N/A   Clear
7:15 PM 37.4 °F 30.8 °F 26.6 °F 65% 29.64 in 10.0 mi South 9.2 mph - N/A   Clear
7:35 PM 35.6 °F 28.6 °F 26.6 °F 70% 29.63 in 10.0 mi South 9.2 mph - N/A   Clear
7:55 PM 37.4 °F 30.3 °F 26.6 °F 65% 29.63 in 10.0 mi South 10.4 mph - N/A   Clear
8:15 PM 37.4 °F 30.8 °F 28.4 °F 70% 29.63 in 10.0 mi South 9.2 mph - N/A   Clear
8:35 PM 37.4 °F 30.3 °F 26.6 °F 65% 29.62 in 10.0 mi South 10.4 mph - N/A   Clear
8:55 PM 37.4 °F 29.3 °F 26.6 °F 65% 29.61 in 10.0 mi South 12.7 mph - N/A   Clear
9:15 PM 37.4 °F 29.3 °F 26.6 °F 65% 29.60 in 10.0 mi South 12.7 mph - N/A   Clear
9:35 PM 37.4 °F 30.3 °F 26.6 °F 65% 29.60 in 10.0 mi South 10.4 mph - N/A   Clear
9:55 PM 37.4 °F 30.8 °F 28.4 °F 70% 29.59 in 10.0 mi South 9.2 mph - N/A   Clear
10:15 PM 37.4 °F 33.8 °F 26.6 °F 65% 29.60 in 10.0 mi SSW 4.6 mph - N/A   Clear
10:35 PM 37.4 °F 29.3 °F 26.6 °F 65% 29.60 in 10.0 mi SSW 12.7 mph - N/A   Clear
10:55 PM 35.6 °F 29.2 °F 26.6 °F 70% 29.60 in 10.0 mi South 8.1 mph - N/A   Clear
11:15 PM 33.8 °F 30.8 °F 26.6 °F 75% 29.61 in 10.0 mi North 3.5 mph - N/A   Clear
11:35 PM 33.8 °F 27.7 °F 26.6 °F 75% 29.60 in 10.0 mi SSW 6.9 mph - N/A   Clear
11:55 PM 32.0 °F - 24.8 °F 75% 29.59 in 10.0 mi Calm Calm - N/A   Clear